Weather History for KISN - April, 2014

Change the Weather History Date:

Tuesday, April 22, 2014

  Actual Average Record
Temperature  
Mean Temperature 54 °F 46 °F  
Max Temperature 71 °F 60 °F 89 °F (1989)
Min Temperature 37 °F 32 °F 12 °F (1909)
Degree Days  
Heating Degree Days 11 19  
Month to date heating degree days 566 512  
Since 1 July heating degree days 8718 8387  
Cooling Degree Days 0 0  
Month to date cooling degree days 0 0  
Year to date cooling degree days 0 0  
Growing Degree Days 4 (Base 50)    
Moisture  
Dew Point 29 °F    
Average Humidity 43    
Maximum Humidity 65    
Minimum Humidity 21    
Precipitation  
Precipitation 0.00 in 0.03 in 0.43 in (1960)
Month to date precipitation 0.28 0.66  
Year to date precipitation 1.04 2.35  
Sea Level Pressure  
Sea Level Pressure 29.86 in    
Wind  
Wind Speed 15 mph (ESE)    
Max Wind Speed 29 mph    
Max Gust Speed 36 mph    
Visibility 10 miles    
Events      
T = Trace of Precipitation, MM = Missing Value Source: NWS Daily Summary

Daily Weather History Graph

Daily Weather History Graph

Search for Another Location

Airport or City:

Trip Planner

Search our weather history database for the weather conditions in past years. The results will help you decide how hot, cold, wet, or windy it might be!

Date:

Astronomy

Apr. 22, 2014 Rise Set
Actual Time 6:51 AM CDT 8:55 PM CDT
Civil Twilight 6:17 AM CDT 9:29 PM CDT
Nautical Twilight 5:36 AM CDT 10:10 PM CDT
Astronomical Twilight 4:50 AM CDT 10:57 PM CDT
Moon 3:14 AM CDT (4/22) 1:28 PM CDT (4/22)
Length of Visible Light 15h 11m
Length of Day
14h 03m
Last Quarter, 46% of the Moon is Illuminated
Apr 22
Last Quarter
Apr 29
New
May 6
First Quarter
May 14
Full
May 21
Last Quarter

Hourly Weather History & Observations

Time (CDT) Temp. Windchill Dew Point Humidity Pressure Visibility Wind Dir Wind Speed Gust Speed Precip Events Conditions
12:52 AM 48.2 °F - 30.2 °F 50% 30.06 in 10.0 mi SE 5.8 mph - N/A   Clear
1:52 AM 46.9 °F - 30.0 °F 52% 30.09 in 10.0 mi East 3.5 mph - N/A   Clear
2:52 AM 45.0 °F 43.5 °F 30.0 °F 56% 30.07 in 10.0 mi ENE 3.5 mph - N/A   Clear
3:52 AM 46.0 °F 44.8 °F 30.0 °F 54% 30.04 in 10.0 mi East 3.5 mph - N/A   Clear
4:52 AM 44.1 °F 40.1 °F 30.9 °F 60% 30.03 in 10.0 mi ENE 6.9 mph - N/A   Clear
5:52 AM 41.0 °F 38.0 °F 30.0 °F 65% 30.02 in 10.0 mi ENE 4.6 mph - N/A   Clear
6:52 AM 41.0 °F 38.0 °F 30.0 °F 65% 30.01 in 10.0 mi NE 4.6 mph - N/A   Clear
7:52 AM 42.1 °F 39.2 °F 30.9 °F 65% 29.98 in 10.0 mi East 4.6 mph - N/A   Clear
8:52 AM 51.1 °F - 30.0 °F 44% 29.96 in 10.0 mi SE 6.9 mph - N/A   Clear
9:52 AM 55.9 °F - 28.9 °F 36% 29.94 in 10.0 mi SE 13.8 mph 24.2 mph N/A   Clear
10:52 AM 60.1 °F - 27.0 °F 28% 29.90 in 10.0 mi SE 20.7 mph 27.6 mph N/A   Clear
11:52 AM 64.0 °F - 28.0 °F 26% 29.88 in 10.0 mi SE 21.9 mph 31.1 mph N/A   Clear
12:52 PM 66.0 °F - 28.0 °F 24% 29.84 in 10.0 mi ESE 21.9 mph 31.1 mph N/A   Clear
1:52 PM 68.0 °F - 27.0 °F 21% 29.81 in 10.0 mi SE 24.2 mph 29.9 mph N/A   Clear
2:52 PM 69.1 °F - 28.0 °F 22% 29.78 in 10.0 mi SE 23.0 mph 27.6 mph N/A   Clear
3:52 PM 70.0 °F - 28.0 °F 21% 29.75 in 10.0 mi SE 23.0 mph 33.4 mph N/A   Clear
4:52 PM 69.1 °F - 28.0 °F 22% 29.72 in 10.0 mi ESE 21.9 mph 32.2 mph N/A   Clear
5:52 PM 71.1 °F - 30.0 °F 22% 29.70 in 10.0 mi ESE 21.9 mph 34.5 mph N/A   Clear
6:52 PM 70.0 °F - 30.0 °F 23% 29.67 in 10.0 mi ESE 20.7 mph 33.4 mph N/A   Clear
7:52 PM 66.9 °F - 30.0 °F 25% 29.66 in 10.0 mi ESE 18.4 mph 27.6 mph N/A   Clear
8:52 PM 64.0 °F - 30.0 °F 28% 29.65 in 10.0 mi ESE 18.4 mph 26.5 mph N/A   Clear
9:52 PM 60.1 °F - 30.0 °F 32% 29.65 in 10.0 mi ESE 16.1 mph 28.8 mph N/A   Clear
10:52 PM 59.0 °F - 30.9 °F 35% 29.65 in 10.0 mi ESE 17.3 mph 27.6 mph N/A   Clear
11:52 PM 57.9 °F - 30.9 °F 36% 29.62 in 10.0 mi East 13.8 mph 26.5 mph N/A   Clear